DL1JBO Weather Reports


time (UTC)temp
C
wind
direction
speed
KPH
gust
KPH
rain 1hr
cm
rain 24hr
cm
rain mn
cm
humidity
%
barometer
mb
20260507090204 10 35 0.0 6.4 0.00 1.47 0.91 95 1009.7
20260507085704 10 28 0.0 9.7 0.00 1.47 0.91 96 1009.6
20260507085204 10 22 0.0 9.7 0.00 1.47 0.91 96 1009.5
20260507084704 10 312 0.0 9.7 0.00 1.47 0.91 96 1009.5
20260507084204 10 56 0.0 3.2 0.00 1.47 0.91 96 1009.5
20260507083704 10 84 0.0 3.2 0.00 1.47 0.91 96 1009.4
20260507083204 10 31 0.0 3.2 0.00 1.47 0.91 96 1009.4
20260507082704 10 109 0.0 3.2 0.00 1.47 0.91 96 1009.4
20260507082204 10 49 0.0 1.6 0.00 1.47 0.91 96 1009.3
20260507081704 10 49 0.0 1.6 0.00 1.47 0.91 96 1009.2
20260507081203 10 49 0.0 1.6 0.00 1.47 0.91 96 1009.1
20260507080704 10 49 0.0 1.6 0.00 1.47 0.91 96 1009.1
20260507080207 10 49 0.0 0.0 0.00 1.47 0.91 96 1009.1
20260507075704 10 124 0.0 0.0 0.00 1.47 0.91 96 1009.0
20260507075204 10 124 0.0 0.0 0.03 1.47 0.91 96 1008.9
20260507074705 10 123 0.0 0.0 0.05 1.47 0.91 96 1008.9
20260507074204 10 25 0.0 0.0 0.05 1.47 0.91 96 1008.8
20260507073704 10 88 0.0 0.0 0.05 1.47 0.91 96 1008.8
20260507072704 10 88 0.0 3.2 0.05 1.47 0.91 96 1008.7
20260507072204 10 88 0.0 0.0 0.08 1.47 0.91 96 1008.7
20260507071204 10 355 0.0 0.0 0.10 1.47 0.91 96 1008.7
20260507070704 10 112 0.0 3.2 0.13 1.47 0.91 96 1008.7
20260507070204 10 112 0.0 3.2 0.13 1.47 0.91 96 1008.6
20260507065204 10 5 0.0 9.7 0.13 1.45 0.89 96 1008.6
20260507064704 10 355 0.0 9.7 0.10 1.45 0.89 96 1008.5
20260507064204 10 355 0.0 3.2 0.13 1.45 0.89 96 1008.4
20260507063704 10 350 0.0 1.6 0.13 1.45 0.89 96 1008.4
20260507063204 10 96 0.0 1.6 0.13 1.45 0.89 96 1008.4
20260507062704 10 96 0.0 1.6 0.13 1.45 0.86 96 1008.3
20260507062204 10 119 0.0 1.6 0.10 1.42 0.84 96 1008.2
20260507061704 10 119 0.0 3.2 0.13 1.42 0.84 96 1008.2
20260507060707 10 132 0.0 3.2 0.08 1.37 0.79 96 1008.0
20260507060204 10 132 0.0 3.2 0.10 1.37 0.79 96 1007.9
20260507055704 10 16 0.0 3.2 0.10 1.37 0.79 96 1007.8
20260507055204 10 16 0.0 3.2 0.10 1.37 0.79 96 1007.8
20260507054704 10 16 0.0 3.2 0.10 1.37 0.79 96 1007.8
20260507054204 10 15 0.0 3.2 0.10 1.35 0.76 96 1007.7
20260507053704 10 12 0.0 3.2 0.10 1.35 0.76 96 1007.6
20260507052704 10 42 0.0 0.0 0.13 1.32 0.74 96 1007.6
20260507051704 10 42 0.0 0.0 0.13 1.30 0.71 96 1007.5
20260507051204 10 42 0.0 1.6 0.15 1.30 0.71 96 1007.5
20260507050704 10 42 0.0 1.6 0.15 1.30 0.71 96 1007.4
20260507045704 10 42 0.0 0.0 0.15 1.27 0.69 96 1007.3
20260507045204 10 42 0.0 0.0 0.15 1.27 0.69 96 1007.3
20260507044704 10 42 0.0 0.0 0.18 1.27 0.69 96 1007.3
20260507044204 10 42 0.0 0.0 0.18 1.24 0.66 96 1007.1
20260507043707 10 42 0.0 1.6 0.18 1.22 0.64 96 1007.1
20260507043204 10 42 0.0 1.6 0.20 1.22 0.64 96 1007.1
20260507042704 10 42 0.0 1.6 0.20 1.19 0.61 96 1007.1
20260507042204 10 42 0.0 0.0 0.20 1.17 0.61 96 1007.0
20260507041704 10 42 0.0 0.0 0.23 1.17 0.61 96 1007.0
20260507040704 10 42 0.0 0.0 0.23 1.14 0.56 96 1006.9
20260507040204 10 42 0.0 0.0 0.23 1.12 0.53 96 1006.9
20260507035704 10 42 0.0 0.0 0.23 1.09 0.51 96 1006.8
20260507035207 10 42 0.0 0.0 0.23 1.09 0.51 96 1006.8
20260507034704 10 42 0.0 0.0 0.23 1.09 0.51 96 1006.7
20260507034204 10 42 0.0 1.6 0.23 1.07 0.48 96 1006.7
20260507033704 10 42 0.0 1.6 0.23 1.04 0.46 96 1006.6
20260507032704 11 42 0.0 0.0 0.23 0.99 0.43 96 1006.5
20260507031704 11 42 0.0 0.0 0.20 0.97 0.38 96 1006.5
20260507031204 11 42 0.0 0.0 0.20 0.94 0.36 96 1006.5
20260507030204 11 42 0.0 1.6 0.15 0.89 0.33 96 1006.4
20260507025704 11 42 0.0 0.0 0.15 0.89 0.30 96 1006.4
20260507024704 11 42 0.0 0.0 0.15 0.84 0.25 96 1006.4
20260507024204 11 42 0.0 0.0 0.10 0.79 0.23 96 1006.3
20260507023704 11 42 0.0 0.0 0.08 0.79 0.20 96 1006.4
20260507023204 11 42 0.0 0.0 0.08 0.79 0.20 96 1006.4
20260507022704 11 42 0.0 0.0 0.10 0.79 0.20 96 1006.4
20260507022204 11 42 0.0 0.0 0.08 0.76 0.18 96 1006.4
20260507021732 11 42 0.0 0.0 0.08 0.76 0.18 96 1006.5
20260507021219 11 42 0.0 0.0 0.08 0.74 0.15 96 1006.5
20260507020704 11 42 0.0 0.0 0.08 0.74 0.15 96 1006.4
20260507020204 11 42 0.0 0.0 0.05 0.71 0.15 96 1006.4
20260507015704 11 42 0.0 0.0 0.05 0.71 0.15 96 1006.4
20260507015204 11 42 0.0 0.0 0.08 0.71 0.15 96 1006.4
20260507014208 11 42 0.0 0.0 0.08 0.71 0.13 96 1006.4
20260507013204 11 42 0.0 0.0 0.08 0.69 0.10 96 1006.4
20260507012728 11 42 0.0 0.0 0.08 0.69 0.10 96 1006.3
20260507012204 11 42 0.0 0.0 0.08 0.69 0.10 96 1006.3
20260507011704 11 42 0.0 0.0 0.10 0.69 0.10 96 1006.3
20260507011204 11 42 0.0 0.0 0.08 0.66 0.08 96 1006.3
20260507010704 11 42 0.0 0.0 0.08 0.66 0.08 96 1006.3
20260507010204 11 42 0.0 0.0 0.08 0.66 0.08 96 1006.3
20260507005207 11 42 0.0 0.0 0.05 0.64 0.05 96 1006.3
20260507004704 11 42 0.0 0.0 0.05 0.61 0.05 96 1006.3
20260507003704 11 42 0.0 0.0 0.05 0.61 0.05 96 1006.2
20260507003204 11 42 0.0 0.0 0.03 0.61 0.03 95 1006.1
20260507002704 11 42 0.0 0.0 0.03 0.61 0.03 95 1006.1
20260507002204 11 42 0.0 0.0 0.03 0.61 0.03 96 1006.0
20260507001704 11 42 0.0 0.0 0.00 0.58 0.00 96 1006.0
20260507001204 11 42 0.0 0.0 0.00 0.58 0.00 96 1005.9
20260507000704 11 42 0.0 0.0 0.00 0.58 0.00 96 1005.9
20260507000205 11 42 0.0 0.0 0.00 0.58 0.00 95 1005.9
20260506235704 11 42 0.0 0.0 0.00 0.61 0.00 95 1005.8
20260506235207 11 42 0.0 0.0 0.00 0.61 0.00 95 1005.9
20260506234204 11 42 0.0 0.0 0.00 0.61 0.00 95 1005.8
20260506233704 11 42 0.0 0.0 0.00 0.61 0.00 95 1005.7
20260506233204 11 42 0.0 0.0 0.00 0.61 0.00 95 1005.7
20260506232204 11 42 0.0 0.0 0.00 0.61 0.00 95 1005.5
20260506231222 11 42 0.0 0.0 0.00 0.61 0.00 95 1005.4
20260506230704 11 42 0.0 0.0 0.00 0.61 0.00 95 1005.3
20260506230204 11 42 0.0 0.0 0.00 0.61 0.00 95 1005.3
20260506225704 11 42 0.0 0.0 0.00 0.61 0.00 95 1005.2
20260506225221 11 42 0.0 0.0 0.00 0.61 0.00 95 1005.2
20260506224704 11 42 0.0 0.0 0.00 0.61 0.00 95 1005.2
20260506224204 11 42 0.0 0.0 0.00 0.61 0.00 95 1005.2
20260506223704 11 42 0.0 0.0 0.00 0.61 0.00 95 1005.2
20260506223204 11 42 0.0 0.0 0.00 0.61 0.00 95 1005.2
20260506222704 11 42 0.0 0.0 0.00 0.61 0.00 95 1005.1
20260506222204 11 42 0.0 0.0 0.00 0.64 0.00 95 1005.1
20260506221722 11 42 0.0 0.0 0.03 0.64 0.00 95 1005.2
20260506221207 11 42 0.0 0.0 0.08 0.66 0.00 95 1005.2
20260506220704 11 42 0.0 0.0 0.13 0.69 0.00 94 1005.2
20260506220207 11 272 0.0 0.0 0.20 0.71 0.71 94 1005.1
20260506215704 11 272 0.0 0.0 0.25 0.76 0.71 94 1005.2
20260506215204 11 272 0.0 0.0 0.33 0.79 0.71 94 1005.3
20260506214704 12 272 0.0 0.0 0.41 0.84 0.71 94 1005.4
20260506214204 12 272 0.0 0.0 0.46 0.89 0.71 94 1005.5
20260506213705 12 57 0.0 0.0 0.51 0.94 0.71 93 1005.4
20260506213204 12 57 0.0 0.0 0.56 0.97 0.71 93 1005.2
20260506212704 12 57 0.0 0.0 0.56 0.99 0.71 93 1005.0
20260506212205 12 57 0.0 0.0 0.56 0.99 0.71 93 1005.0
20260506211703 12 40 0.0 0.0 0.51 1.02 0.69 94 1005.1
20260506211204 12 40 0.0 0.0 0.46 1.02 0.61 93 1005.2
20260506210704 12 40 0.0 0.0 0.43 1.07 0.58 93 1005.2
20260506210204 12 81 0.0 0.0 0.33 1.04 0.51 93 1005.2
20260506205704 12 92 0.0 0.0 0.25 1.04 0.43 92 1005.5
20260506205204 12 324 0.0 0.0 0.20 1.04 0.36 92 1005.7
20260506204707 13 324 0.0 0.0 0.15 1.04 0.30 92 1005.6
20260506203704 13 278 0.0 0.0 0.05 1.02 0.20 91 1005.5
20260506203204 13 290 0.0 0.0 0.00 1.02 0.15 91 1005.3
20260506202704 13 288 0.0 0.0 0.00 1.09 0.15 91 1005.3
20260506202204 13 5 0.0 0.0 0.00 1.12 0.15 91 1005.3
20260506201204 13 268 0.0 0.0 0.00 1.17 0.15 91 1005.1
20260506200704 13 34 0.0 0.0 0.00 1.17 0.15 91 1004.9
20260506195704 13 46 0.0 0.0 0.00 1.17 0.15 91 1004.7
20260506195204 13 77 0.0 0.0 0.00 1.19 0.15 90 1004.6
20260506194728 13 89 0.0 0.0 0.00 1.19 0.15 90 1004.6
20260506194204 13 89 0.0 0.0 0.00 1.22 0.15 90 1004.4
20260506193704 13 37 0.0 0.0 0.00 1.24 0.15 90 1004.4
20260506193204 13 21 0.0 0.0 0.00 1.24 0.15 90 1004.4
20260506192204 13 81 0.0 0.0 0.00 1.27 0.15 90 1004.4
20260506191704 14 81 0.0 0.0 0.00 1.30 0.15 89 1004.3
20260506191204 14 81 0.0 0.0 0.00 1.32 0.15 89 1004.2
20260506190725 14 81 0.0 0.0 0.00 1.35 0.15 89 1004.1
20260506190204 14 81 0.0 0.0 0.00 1.37 0.15 89 1004.0
20260506185704 14 81 0.0 0.0 0.00 1.45 0.15 88 1004.0
20260506184707 15 70 0.0 0.0 0.00 1.50 0.15 88 1003.9
20260506183704 15 70 0.0 0.0 0.00 1.50 0.15 87 1003.6
20260506183204 15 144 0.0 0.0 0.00 1.50 0.15 86 1003.6
20260506182704 15 144 0.0 0.0 0.00 1.50 0.15 86 1003.6
20260506182203 15 144 0.0 0.0 0.00 1.50 0.15 85 1003.6
20260506180704 16 144 0.0 1.6 0.00 1.50 0.15 84 1003.6
20260506180204 16 144 0.0 1.6 0.00 1.50 0.15 83 1003.6
20260506175705 16 0 0.0 1.6 0.00 1.50 0.15 83 1003.6
20260506175204 16 0 0.0 0.0 0.00 1.50 0.15 83 1003.5
20260506174704 16 0 0.0 0.0 0.00 1.50 0.15 82 1003.6
20260506174204 16 73 0.0 0.0 0.00 1.50 0.15 81 1003.5
20260506173704 17 58 0.0 0.0 0.00 1.50 0.15 80 1003.5
20260506173204 17 56 0.0 0.0 0.00 1.50 0.15 79 1003.4
20260506171204 18 60 0.0 0.0 0.00 1.50 0.15 76 1003.1
20260506170704 18 136 0.0 0.0 0.00 1.50 0.15 75 1002.9
20260506165704 19 280 0.0 0.0 0.00 1.50 0.15 71 1002.9
20260506165204 20 280 0.0 0.0 0.00 1.50 0.15 65 1002.7
20260506164705 20 280 0.0 0.0 0.00 1.50 0.15 63 1002.6
20260506163704 20 280 0.0 0.0 0.00 1.50 0.15 61 1002.6
20260506163204 20 280 0.0 0.0 0.00 1.50 0.15 60 1002.7
20260506162704 20 280 0.0 0.0 0.00 1.50 0.15 66 1002.7
20260506162222 20 280 0.0 0.0 0.00 1.50 0.15 65 1002.7
20260506161704 20 280 0.0 0.0 0.00 1.50 0.15 62 1002.7
20260506161210 20 280 0.0 0.0 0.00 1.50 0.15 61 1002.8
20260506160704 20 280 0.0 0.0 0.00 1.50 0.15 59 1002.9
20260506160219 21 280 0.0 0.0 0.00 1.50 0.15 55 1002.9
20260506155704 21 280 0.0 0.0 0.00 1.50 0.15 55 1002.9
20260506155203 21 298 0.0 0.0 0.00 1.50 0.15 54 1002.9
20260506154704 21 298 0.0 0.0 0.00 1.50 0.15 58 1002.9
20260506154204 21 295 0.0 0.0 0.00 1.50 0.15 56 1003.0
20260506153204 20 300 0.0 14.5 0.00 1.50 0.15 59 1003.1
20260506152703 20 300 0.0 14.5 0.00 1.50 0.15 59 1003.3
20260506152205 20 300 0.0 3.2 0.00 1.50 0.15 58 1003.3
20260506151705 20 313 0.0 1.6 0.00 1.50 0.15 60 1003.3
20260506151204 20 313 0.0 8.0 0.00 1.50 0.15 60 1003.3
20260506150704 20 313 0.0 8.0 0.00 1.50 0.15 58 1003.4
20260506150204 20 313 0.0 8.0 0.00 1.50 0.15 59 1003.4
20260506145704 20 27 0.0 6.4 0.00 1.50 0.15 58 1003.4
20260506145204 20 259 0.0 6.4 0.00 1.50 0.15 58 1003.4
20260506144204 20 281 0.0 6.4 0.00 1.50 0.15 58 1003.4
20260506143205 20 217 0.0 3.2 0.00 1.50 0.15 57 1003.5
20260506142704 20 327 0.0 8.0 0.00 1.50 0.15 58 1003.4
20260506142204 20 281 0.0 8.0 0.00 1.50 0.15 58 1003.4
20260506141704 20 273 0.0 8.0 0.00 1.50 0.15 62 1003.4
20260506141204 20 271 0.0 1.6 0.00 1.50 0.15 61 1003.5
20260506140704 20 313 0.0 0.0 0.00 1.50 0.15 60 1003.6
20260506140204 20 301 0.0 6.4 0.00 1.50 0.15 65 1003.5
20260506135704 20 301 0.0 14.5 0.00 1.50 0.15 63 1003.5
20260506135204 20 300 1.6 14.5 0.00 1.50 0.15 62 1003.6
20260506134704 20 297 1.6 9.7 0.00 1.50 0.15 62 1003.6
20260506134204 20 276 0.0 6.4 0.00 1.50 0.15 60 1003.6
20260506133703 20 0 0.0 6.4 0.00 1.50 0.15 65 1003.8
20260506133204 20 303 0.0 1.6 0.00 1.50 0.15 66 1003.7
20260506132704 20 314 0.0 0.0 0.00 1.50 0.15 65 1003.7
20260506132204 19 306 0.0 0.0 0.00 1.50 0.15 65 1003.6
20260506131703 19 321 0.0 0.0 0.00 1.50 0.15 65 1003.7
20260506131205 19 321 0.0 0.0 0.00 1.50 0.15 63 1003.7
20260506130704 20 302 0.0 0.0 0.00 1.50 0.15 64 1003.7
20260506125704 20 345 0.0 0.0 0.00 1.50 0.15 65 1003.8
20260506125204 20 279 0.0 0.0 0.00 1.50 0.15 63 1003.9
20260506124704 20 266 0.0 0.0 0.00 1.50 0.15 63 1003.9
20260506123707 19 294 0.0 0.0 0.00 1.50 0.15 63 1003.9
20260506123205 19 344 0.0 0.0 0.00 1.50 0.15 64 1003.9
20260506122705 19 344 0.0 0.0 0.00 1.50 0.15 63 1003.9
20260506122204 19 302 0.0 1.6 0.00 1.50 0.15 60 1003.9
20260506121704 20 355 0.0 1.6 0.00 1.50 0.15 62 1003.9
20260506121229 20 320 0.0 9.7 0.00 1.50 0.15 60 1003.9
20260506120204 20 294 0.0 9.7 0.00 1.50 0.15 62 1003.9
20260506115704 20 311 0.0 3.2 0.00 1.50 0.15 65 1003.9
20260506115204 20 277 0.0 16.1 0.00 1.50 0.15 65 1003.9
20260506114704 20 284 0.0 16.1 0.00 1.50 0.15 65 1004.0
20260506114204 20 275 0.0 17.7 0.00 1.50 0.15 62 1003.9
20260506113204 20 288 1.6 20.9 0.00 1.50 0.15 61 1003.9
20260506112704 20 348 1.6 20.9 0.00 1.50 0.15 59 1004.0
20260506112205 20 208 1.6 16.1 0.00 1.50 0.15 64 1003.8
20260506111704 19 263 1.6 16.1 0.00 1.50 0.15 63 1004.0
20260506110704 19 290 1.6 12.9 0.00 1.50 0.15 66 1004.0
20260506110225 19 143 0.0 1.6 0.00 1.50 0.15 64 1004.0
20260506105704 19 319 0.0 1.6 0.00 1.50 0.15 64 1004.1
20260506105205 19 229 0.0 8.0 0.00 1.50 0.15 66 1004.1
20260506104704 18 263 0.0 25.7 0.00 1.50 0.15 70 1004.2
20260506104204 18 301 1.6 25.7 0.00 1.50 0.15 69 1004.3
20260506103704 18 269 1.6 17.7 0.00 1.50 0.15 67 1004.3
20260506103207 18 90 1.6 17.7 0.00 1.50 0.15 69 1004.2
20260506102704 18 19 1.6 17.7 0.00 1.50 0.15 69 1004.2
20260506102207 18 355 0.0 0.0 0.00 1.50 0.15 71 1004.2
20260506101704 17 25 0.0 1.6 0.00 1.50 0.15 71 1004.3
20260506101204 17 227 0.0 17.7 0.00 1.50 0.15 71 1004.2
20260506100219 17 280 1.6 17.7 0.00 1.50 0.15 73 1004.1
20260506095704 17 336 1.6 16.1 0.00 1.50 0.15 72 1004.1
20260506095204 17 315 1.6 16.1 0.00 1.50 0.15 75 1004.1
20260506094704 17 281 1.6 16.1 0.00 1.50 0.15 72 1004.1
20260506094204 17 339 0.0 12.9 0.00 1.50 0.15 73 1004.1
20260506093704 17 293 0.0 12.9 0.00 1.50 0.15 72 1004.1
20260506093204 18 349 0.0 12.9 0.00 1.50 0.15 75 1004.0
20260506092208 17 53 0.0 12.9 0.00 1.50 0.15 75 1004.0
20260506091205 17 269 0.0 9.7 0.00 1.50 0.15 76 1003.9
20260506090705 17 311 0.0 9.7 0.00 1.50 0.15 74 1003.9